Kalispell, MT

6:32 AM MDT on October 24, 2017 (GMT -0600)
Glacier Park International

Weather History for KGPI - October, 2012

Change the Weather History Date:

Wednesday, October 24, 2012

  Actual Average Record
Temperature  
Mean Temperature 35 °F 39 °F  
Max Temperature 41 °F 51 °F 72 °F (2007)
Min Temperature 29 °F 28 °F 8 °F (2002)
Degree Days  
Heating Degree Days 30 26  
Month to date heating degree days 525 519  
Since 1 July heating degree days 911 1019  
Cooling Degree Days 0 0  
Month to date cooling degree days 0 0  
Year to date cooling degree days 192 147  
Moisture  
Dew Point 30 °F    
Average Humidity 83    
Maximum Humidity 100    
Minimum Humidity 65    
Precipitation  
Precipitation 0.04 in 0.03 in 0.65 in (1913)
Month to date precipitation 1.47 0.73  
Year to date precipitation 16.42 13.72  
Snow  
Snow T in - - ()
Month to date snowfall 0.3  
Year to date snowfall 25.4  
Since 1 July snowfall 0.3  
Snow Depth 0.00 in    
Sea Level Pressure  
Sea Level Pressure 30.01 in    
Wind  
Wind Speed 2 mph (NNE)    
Max Wind Speed 7 mph    
Max Gust Speed -    
Visibility 4 miles    
Events Snow    
T = Trace of Precipitation, MM = Missing Value Source: NWS Daily Summary

Daily Weather History Graph

Daily Weather History Graph

Search for Another Location

Airport or City:

Trip Planner

Search our weather history database for the weather conditions in past years. The results will help you decide how hot, cold, wet, or windy it might be!

Date:

Astronomy

Oct. 24, 2012 Rise Set
Actual Time 8:11 AM MDT 6:30 PM MDT
Civil Twilight 7:39 AM MDT 7:02 PM MDT
Nautical Twilight 7:02 AM MDT 7:38 PM MDT
Astronomical Twilight 6:26 AM MDT 8:14 PM MDT
Moon 4:07 PM MDT 2:48 AM MDT
Length of Visible Light 11h 23m
Length of Day
10h 19m
Waxing Gibbous, 76% of the Moon is Illuminated
Oct 24
Waxing Gibbous
Oct 29
Full
Nov 6
Last Quarter
Nov 13
New
Nov 20
First Quarter

Hourly Weather History & Observations

Time (MDT) Temp. Windchill Dew Point Humidity Pressure Visibility Wind Dir Wind Speed Gust Speed Precip Events Conditions
12:22 AM 30.2 °F - 30.2 °F 100% 29.94 in 3.0 mi Calm Calm - 0.00 in Snow Light Snow
12:51 AM 30.2 °F 24.3 °F 28.4 °F 93% 29.94 in 1.8 mi NE 5.8 mph - 0.00 in Snow Light Snow
12:55 AM 30.9 °F 25.2 °F 30.0 °F 96% 30.02 in 1.2 mi NNE 5.8 mph - 0.01 in Snow Light Snow
1:02 AM 30.2 °F 24.3 °F 28.4 °F 93% 29.95 in 1.5 mi NE 5.8 mph - 0.00 in Snow Light Snow
1:12 AM 30.2 °F 24.3 °F 28.4 °F 93% 29.95 in 2.5 mi NE 5.8 mph - 0.00 in Snow Light Snow
1:19 AM 30.2 °F 24.3 °F 28.4 °F 93% 29.95 in 4.0 mi NE 5.8 mph - 0.00 in Snow Light Snow
2:24 AM 30.2 °F - 28.4 °F 93% 29.96 in 1.8 mi Calm Calm - 0.00 in Snow Light Snow
2:27 AM 30.2 °F - 30.2 °F 100% 29.96 in 1.2 mi Calm Calm - 0.01 in Snow Light Snow
2:43 AM 30.2 °F - 30.2 °F 100% 29.96 in 1.0 mi Calm Calm - 0.02 in Snow Light Snow
3:27 AM 30.2 °F - 30.2 °F 100% 29.97 in 2.5 mi Calm Calm - 0.03 in Snow Light Snow
3:53 AM 30.2 °F 26.7 °F 30.2 °F 100% 29.97 in 2.5 mi NNE 3.5 mph - 0.04 in Snow Light Snow
3:55 AM 30.9 °F 27.5 °F 30.0 °F 96% 30.04 in 2.5 mi NNE 3.5 mph - 0.04 in Snow Light Snow
4:02 AM 30.2 °F 26.7 °F 30.2 °F 100% 29.97 in 4.0 mi North 3.5 mph - 0.00 in Snow Light Snow
4:55 AM 30.9 °F 27.5 °F 30.0 °F 96% 30.05 in 9.0 mi NNE 3.5 mph - 0.00 in   Overcast
5:55 AM 30.9 °F 27.5 °F 30.0 °F 96% 30.06 in 5.0 mi North 3.5 mph - N/A   Overcast
6:55 AM 30.9 °F - 28.9 °F 92% 30.08 in 3.0 mi Calm Calm - 0.00 in   Overcast
7:17 AM 30.2 °F - 28.4 °F 93% 30.00 in 5.0 mi Calm Calm - N/A   Overcast
7:55 AM 30.0 °F - 28.9 °F 96% 30.08 in 6.0 mi Calm Calm - N/A   Overcast
8:55 AM 30.0 °F - 28.9 °F 96% 30.10 in 5.0 mi Calm Calm - N/A   Overcast
9:48 AM 32.0 °F - 28.4 °F 87% 30.02 in 6.0 mi Calm Calm - N/A   Mostly Cloudy
10:55 AM 36.0 °F - 30.9 °F 82% 30.10 in 6.0 mi Calm Calm - N/A   Haze
11:55 AM 37.0 °F 31.6 °F 30.9 °F 79% 30.09 in 10.0 mi NE 6.9 mph - N/A   Clear
12:55 PM 39.0 °F - 32.0 °F 76% 30.09 in 8.0 mi Calm Calm - N/A   Partly Cloudy
1:55 PM 41.0 °F 38.0 °F 30.9 °F 67% 30.09 in 10.0 mi North 4.6 mph - N/A   Partly Cloudy